User: anonymous   Login
Location: Unspecified
(0.0000°N, 0.0000°E)
Time: 18:44:26
(UTC+00:00)
Language:

STARS - Orbit

View from above orbital plane
View from above orbital plane
View from above satellite
View from above satellite

Ground track
Ground track

The orbit data is extracted from the following two-line orbital elements,

1 33498U 09002G   18203.11929587  .00000187  00000-0  33047-4 0  9991
2 33498  98.3306  36.0083 0011737 144.7186 329.6629 14.78833863511003
Epoch (UTC): 22 July 2018 02:51:47
Eccentricity: 0.0011737
inclination: 98.3306°
perigee height: 625 km
apogee height: 641 km
right ascension of ascending node: 36.0083°
argument of perigee: 144.7186°
revolutions per day: 14.78833863
mean anomaly at epoch: 329.6629°
orbit number at epoch: 51100

The dashed part of the orbit path shows where the satellite is in the earth's shadow,  

DLR